Vorticity
19 13 12 13 4 6 19 5 -24 14 -1 -11 22 21 3 -1 -9 -4 22 1 16 8 7 7 7 5 4 1 3 4 5 6 7 7 8 7 6 5 5 5 5 5 4 5 6 6 6 6 6
19 14 13 18 -13 2 17 13 -0 -6 5 8 22 18 12 -5 5 4 13 9 12 7 9 8 7 5 4 3 4 5 6 7 7 7 7 6 5 5 6 5 5 5 5 6 6 6 5 5 5
20 13 17 -2 17 -12 8 32 3 -4 -5 -10 21 2 10 -7 2 7 -5 10 11 5 6 6 5 5 3 4 5 5 6 6 6 6 6 6 6 6 6 6 6 6 6 6 5 5 4 5 5
19 17 9 2 -0 7 -40 32 0 16 -0 26 5 -12 5 4 2 7 9 -10 19 5 5 5 6 4 2 5 5 5 5 5 6 6 6 6 6 6 6 6 6 6 5 5 5 5 5 5 6
17 15 -1 23 6 -6 9 26 13 25 -17 9 11 13 4 -0 7 7 6 5 21 6 5 5 5 5 4 6 4 5 5 5 6 6 6 6 6 6 6 6 6 5 5 5 5 5 6 6 5
11 -1 19 -19 27 9 -16 26 8 -10 15 -2 14 14 3 6 4 13 3 17 12 7 6 5 5 3 5 5 4 4 4 5 5 6 6 6 6 6 6 5 5 5 5 5 5 6 5 5 5
8 14 -5 2 11 34 27 -6 4 21 2 10 -4 2 6 6 3 6 8 17 6 6 6 5 4 3 5 5 4 4 4 4 5 5 6 6 6 6 5 5 5 5 5 5 5 5 5 5 5
12 -3 6 2 -3 17 30 26 -7 -4 2 18 12 5 3 16 5 5 8 9 7 7 5 7 5 3 6 5 5 3 3 4 4 4 5 5 5 5 5 4 5 5 5 5 5 5 5 4 5
10 -3 26 15 4 -3 14 15 9 22 3 7 16 8 20 -31 -3 4 5 7 7 7 4 6 4 3 4 4 5 4 3 3 3 4 4 5 5 5 5 5 5 5 5 5 5 5 5 4 5
5 12 6 -2 10 5 0 -2 13 -0 20 14 10 8 -2 20 13 5 5 6 10 7 5 4 4 4 4 4 5 5 3 3 3 3 4 4 4 5 4 5 5 5 5 5 5 5 5 5 5
9 5 5 11 18 23 -5 -4 2 19 4 10 22 -6 14 2 0 6 5 4 12 11 6 5 4 3 7 5 5 7 4 3 3 3 3 3 4 4 5 5 5 5 5 5 5 5 5 5 5
6 8 25 16 14 -1 3 11 2 15 15 24 -2 27 45 9 29 8 2 2 11 8 6 5 3 3 4 4 5 7 6 4 3 4 4 4 4 4 4 5 5 5 5 6 5 5 5 5 5
8 11 9 9 9 1 5 5 4 10 18 21 -0 2 21 9 -23 13 -5 2 9 6 8 5 5 4 2 5 6 7 7 5 5 5 5 6 5 5 5 4 5 5 5 5 6 5 5 5 5
1 5 13 9 22 -1 -1 2 -0 1 15 24 11 13 11 18 43 5 1 4 6 8 6 5 5 5 3 4 6 7 6 5 5 5 5 5 5 5 5 6 5 5 5 6 6 6 6 5 6
14 12 7 15 14 25 14 6 9 -9 -7 8 17 21 22 -7 6 1 1 7 5 8 7 4 5 5 4 4 5 5 5 4 4 4 3 3 4 5 6 6 7 7 7 6 6 6 6 6 6
9 11 12 3 12 17 32 20 3 10 -3 -0 2 18 13 25 -2 14 -5 16 5 5 8 4 5 4 5 4 5 4 4 4 4 3 2 2 4 5 5 6 6 7 7 7 6 6 5 5 6
16 2 3 17 -10 4 26 25 28 37 20 -4 3 -8 43 -28 19 13 10 8 4 9 2 7 5 4 5 4 5 3 3 3 3 3 3 4 4 5 5 5 6 7 7 7 7 6 6 6 6
1 3 4 0 5 -2 6 17 7 -1 6 29 9 9 7 46 38 -3 10 -8 6 6 1 5 5 4 6 4 4 3 2 2 2 3 3 4 5 5 5 5 6 7 7 7 7 6 6 5 6
4 5 4 10 12 9 11 5 7 8 22 -6 7 20 8 21 -15 -14 0 -7 -3 18 -1 -2 8 5 5 7 5 4 3 4 4 3 4 5 6 5 5 6 6 6 7 7 6 6 6 6 6
7 2 4 17 23 -9 8 7 8 3 2 22 0 4 20 18 5 3 18 14 -5 -5 5 8 6 2 6 10 7 4 2 3 3 3 3 6 6 5 6 7 7 7 6 6 6 6 6 6 6
4 1 7 10 6 2 8 24 27 22 19 9 16 -2 -3 6 20 10 12 -8 -2 22 20 5 1 5 10 5 0 5 7 8 9 19 11 5 5 6 9 8 7 6 6 6 6 6 6 6 6
8 26 14 3 5 9 -20 -11 3 19 35 14 32 7 -3 6 -2 15 11 2 2 27 27 11 7 11 10 6 6 5 7 14 20 12 11 6 5 8 8 7 6 6 6 6 6 6 6 6 6
2 13 1 3 12 12 16 23 4 -10 -21 7 16 33 12 2 4 -0 21 7 -7 29 1 4 -17 2 16 7 5 8 22 -3 18 15 8 7 9 9 7 6 6 6 6 6 6 6 7 6 6
1 4 12 9 14 29 30 -1 38 30 20 7 3 30 34 6 -1 11 2 17 13 14 29 11 -56 -6 -1 9 16 14 7 5 8 9 7 9 9 8 6 6 6 6 6 6 6 7 7 7 6
6 2 14 16 15 6 16 27 -36 -22 16 29 17 13 20 33 7 4 1 14 9 15 12 -9 -3 -53 7 -0 12 12 12 7 15 9 9 8 7 7 5 6 7 7 7 6 6 7 7 7 6
28 7 -9 10 8 -1 3 12 6 -17 6 8 5 24 26 16 22 18 8 12 12 10 -3 9 29 15 -18 4 5 4 7 7 12 10 9 8 7 5 5 5 6 6 7 7 7 7 8 7 6
25 12 18 -5 24 11 7 7 -7 53 11 9 19 14 20 18 -8 9 18 14 14 16 5 8 18 9 18 6 -21 -14 2 6 9 11 8 8 6 6 4 5 7 7 8 8 9 8 7 6 6
-9 14 11 10 11 10 18 24 -23 -17 11 6 2 12 14 20 13 18 23 15 13 21 17 11 2 7 7 4 14 -1 0 -2 9 8 6 9 6 5 5 6 6 6 8 9 9 9 7 7 6
19 -3 -5 1 -5 3 7 14 7 16 10 11 8 -0 -1 41 20 8 19 -1 -3 15 14 8 6 9 6 4 -1 -7 1 4 6 6 7 7 5 4 5 6 5 6 9 9 8 8 7 7 7
0 12 23 -38 28 1 -8 -0 56 54 32 4 25 11 28 16 19 27 8 22 7 11 12 16 12 9 17 -9 -14 -2 4 8 7 6 6 7 5 4 4 5 5 7 8 9 8 7 8 7 8
Height
3124 3126 3128 3131 3142 3134 3126 3129 3136 3140 3144 3146 3146 3146 3147 3149 3149 3152 3148 3150 3152 3154 3157 3159 3161 3164 3165 3167 3168 3168 3169 3169 3169 3169 3169 3170 3170 3171 3171 3172 3172 3172 3172 3172 3172 3171 3170 3170 3170
3117 3118 3121 3123 3127 3122 3115 3125 3129 3138 3141 3142 3143 3144 3144 3145 3146 3148 3147 3148 3151 3153 3156 3158 3160 3163 3165 3166 3167 3168 3168 3168 3169 3168 3169 3169 3170 3171 3171 3171 3171 3171 3171 3172 3172 3171 3170 3170 3169
3111 3112 3116 3119 3115 3109 3113 3121 3129 3135 3138 3140 3140 3141 3142 3143 3144 3146 3147 3148 3149 3152 3155 3157 3160 3162 3164 3166 3167 3167 3168 3168 3168 3168 3168 3168 3169 3169 3170 3171 3171 3171 3171 3171 3171 3170 3170 3169 3169
3105 3109 3111 3108 3106 3108 3113 3122 3127 3130 3134 3135 3138 3137 3139 3141 3143 3144 3146 3147 3149 3150 3153 3157 3159 3161 3163 3165 3166 3167 3167 3167 3168 3168 3168 3168 3169 3169 3170 3170 3171 3171 3171 3171 3171 3170 3170 3169 3168
3101 3103 3105 3102 3102 3105 3112 3120 3126 3126 3130 3132 3134 3134 3134 3138 3140 3142 3144 3146 3147 3149 3152 3155 3158 3161 3163 3164 3166 3167 3167 3167 3167 3167 3168 3168 3168 3169 3170 3170 3171 3171 3170 3170 3170 3170 3169 3169 3168
3099 3101 3100 3099 3099 3103 3111 3119 3122 3124 3127 3129 3131 3131 3131 3136 3138 3140 3142 3143 3146 3149 3151 3154 3156 3159 3162 3163 3165 3166 3167 3167 3167 3168 3168 3168 3169 3170 3170 3170 3171 3171 3170 3170 3170 3170 3169 3169 3168
3098 3098 3096 3097 3098 3099 3107 3118 3117 3120 3122 3124 3128 3128 3130 3133 3135 3138 3140 3142 3145 3148 3151 3153 3156 3158 3160 3162 3164 3165 3166 3167 3167 3168 3168 3168 3169 3170 3170 3171 3171 3171 3171 3170 3170 3170 3169 3168 3168
3097 3098 3096 3097 3099 3101 3104 3105 3109 3114 3117 3119 3123 3124 3127 3131 3133 3135 3137 3140 3143 3146 3150 3153 3155 3157 3159 3161 3163 3165 3166 3167 3167 3167 3168 3169 3169 3169 3170 3171 3171 3171 3171 3170 3170 3169 3169 3168 3168
3095 3095 3094 3096 3098 3099 3100 3101 3105 3107 3110 3114 3117 3122 3126 3125 3130 3132 3134 3137 3140 3144 3147 3151 3154 3156 3158 3160 3162 3163 3165 3166 3167 3167 3167 3168 3169 3169 3169 3170 3171 3170 3170 3170 3170 3169 3168 3168 3167
3094 3093 3093 3095 3096 3097 3098 3098 3099 3103 3104 3106 3112 3117 3121 3121 3125 3130 3131 3134 3137 3141 3145 3149 3153 3156 3157 3159 3161 3162 3164 3165 3165 3167 3167 3167 3168 3168 3169 3169 3170 3169 3169 3169 3169 3169 3168 3167 3166
3091 3089 3092 3092 3094 3097 3095 3096 3095 3097 3099 3103 3109 3114 3116 3116 3121 3127 3128 3133 3136 3140 3144 3147 3151 3154 3156 3158 3160 3161 3162 3163 3164 3165 3166 3167 3167 3167 3168 3168 3168 3168 3168 3168 3168 3168 3167 3166 3165
3089 3089 3089 3090 3090 3091 3090 3092 3094 3093 3095 3099 3103 3109 3108 3111 3117 3119 3125 3129 3132 3136 3141 3145 3149 3152 3154 3156 3158 3159 3160 3162 3163 3165 3165 3166 3166 3167 3166 3166 3167 3167 3167 3167 3167 3167 3166 3165 3164
3087 3087 3087 3086 3087 3087 3088 3088 3091 3092 3093 3094 3098 3100 3103 3104 3107 3116 3122 3126 3130 3134 3138 3143 3147 3149 3151 3154 3155 3157 3158 3160 3162 3163 3163 3164 3165 3165 3165 3165 3165 3165 3166 3165 3166 3165 3165 3164 3162
3086 3085 3084 3084 3085 3085 3085 3085 3087 3092 3091 3092 3093 3093 3093 3099 3097 3110 3117 3121 3125 3130 3135 3139 3143 3147 3149 3152 3153 3155 3156 3158 3160 3161 3162 3163 3163 3163 3163 3163 3164 3164 3164 3164 3163 3163 3162 3162 3161
3085 3082 3081 3081 3082 3081 3083 3080 3082 3090 3090 3089 3091 3091 3093 3094 3093 3102 3112 3118 3122 3127 3132 3136 3139 3143 3146 3149 3151 3152 3154 3155 3157 3159 3160 3161 3161 3161 3161 3161 3162 3162 3162 3162 3161 3161 3160 3159 3158
3084 3081 3078 3078 3078 3079 3079 3072 3079 3085 3088 3088 3087 3090 3092 3093 3095 3097 3107 3114 3117 3122 3127 3131 3135 3139 3143 3146 3148 3149 3151 3153 3155 3156 3158 3158 3159 3159 3159 3159 3159 3160 3160 3160 3159 3159 3158 3157 3156
3083 3080 3077 3075 3076 3075 3075 3071 3077 3078 3083 3085 3086 3087 3089 3090 3097 3098 3100 3107 3113 3118 3122 3127 3132 3136 3139 3142 3144 3146 3148 3149 3152 3154 3155 3156 3156 3157 3157 3156 3157 3157 3157 3157 3157 3157 3156 3155 3154
3082 3079 3076 3074 3074 3072 3071 3067 3071 3075 3075 3077 3080 3081 3082 3078 3084 3094 3097 3101 3109 3113 3117 3123 3128 3132 3135 3137 3140 3142 3144 3146 3148 3150 3152 3153 3154 3154 3154 3154 3154 3154 3154 3155 3155 3154 3154 3153 3152
3079 3078 3074 3072 3072 3068 3066 3062 3064 3068 3069 3070 3073 3077 3078 3077 3073 3083 3090 3100 3104 3108 3111 3119 3123 3127 3130 3133 3135 3137 3140 3142 3144 3146 3148 3149 3150 3151 3151 3151 3152 3151 3151 3152 3152 3151 3151 3150 3150
3077 3074 3071 3068 3069 3067 3063 3055 3057 3060 3064 3066 3069 3072 3076 3077 3082 3084 3089 3095 3100 3106 3109 3114 3118 3122 3125 3128 3131 3132 3135 3136 3137 3140 3143 3145 3146 3147 3148 3148 3148 3148 3148 3148 3148 3148 3148 3148 3147
3073 3072 3070 3068 3065 3063 3059 3049 3050 3053 3055 3059 3061 3065 3069 3071 3075 3081 3083 3085 3091 3097 3103 3107 3113 3117 3121 3123 3125 3126 3128 3130 3132 3135 3138 3140 3142 3143 3143 3144 3144 3144 3144 3144 3144 3145 3145 3144 3144
3068 3068 3068 3067 3065 3062 3060 3049 3040 3045 3047 3050 3054 3056 3060 3064 3069 3073 3076 3078 3085 3084 3093 3093 3106 3113 3116 3118 3120 3122 3124 3126 3128 3131 3133 3135 3137 3138 3139 3139 3139 3140 3140 3140 3141 3141 3141 3141 3140
3066 3066 3066 3065 3064 3061 3058 3059 3032 3039 3043 3046 3046 3049 3053 3057 3062 3067 3070 3076 3081 3083 3081 3084 3092 3105 3111 3113 3115 3117 3118 3122 3123 3126 3129 3131 3132 3133 3134 3135 3135 3135 3136 3136 3137 3137 3137 3137 3137
3064 3065 3064 3062 3062 3059 3052 3053 3030 3036 3038 3041 3042 3042 3045 3049 3055 3059 3063 3068 3074 3076 3080 3085 3089 3102 3105 3107 3111 3112 3114 3117 3118 3122 3124 3126 3127 3128 3130 3130 3130 3130 3131 3131 3132 3132 3133 3133 3133
3062 3063 3063 3062 3058 3054 3048 3048 3030 3035 3035 3036 3037 3038 3041 3044 3048 3053 3056 3059 3062 3067 3073 3080 3087 3091 3097 3101 3105 3108 3110 3112 3115 3117 3119 3120 3122 3124 3124 3125 3125 3125 3125 3126 3127 3127 3128 3128 3128
3058 3060 3060 3062 3059 3049 3047 3037 3027 3029 3030 3032 3033 3033 3035 3039 3042 3048 3050 3053 3057 3063 3068 3073 3076 3082 3088 3093 3099 3102 3106 3108 3112 3114 3114 3115 3117 3118 3118 3120 3120 3120 3121 3121 3122 3123 3123 3123 3123
3055 3055 3057 3055 3052 3049 3037 3029 3025 3024 3026 3026 3028 3029 3031 3034 3037 3039 3042 3045 3049 3055 3059 3065 3069 3075 3081 3087 3093 3096 3099 3102 3107 3110 3109 3110 3111 3113 3113 3114 3115 3115 3115 3116 3117 3118 3118 3118 3118
3050 3053 3054 3054 3054 3046 3030 3025 3021 3022 3022 3022 3023 3025 3027 3028 3031 3033 3035 3038 3043 3047 3052 3058 3063 3069 3074 3078 3084 3087 3094 3097 3102 3102 3103 3105 3106 3107 3108 3109 3109 3110 3110 3110 3111 3112 3112 3112 3112
3044 3045 3047 3049 3045 3043 3037 3020 3018 3018 3019 3018 3019 3021 3021 3021 3024 3028 3030 3034 3038 3041 3044 3050 3056 3060 3065 3070 3074 3081 3086 3090 3093 3093 3096 3098 3099 3100 3101 3103 3104 3104 3104 3105 3105 3106 3106 3106 3107
3037 3036 3037 3040 3038 3035 3034 3015 3015 3015 3016 3016 3017 3016 3016 3016 3018 3020 3025 3029 3031 3034 3038 3042 3047 3052 3057 3064 3069 3073 3078 3080 3084 3087 3088 3090 3092 3093 3095 3095 3096 3097 3098 3098 3099 3099 3100 3101 3101